sat.trackr.live / text

‹ back to catalog

ECHOSTAR 25

NORAD 68126 · 2026-045A

PAYLOAD ACTIVE UNKNOWN

§ Identity

Operator
Country
US
Launch date
2026-03-10
Launch site
AFETR
Launch vehicle
Mass (kg)
RCS (m²)

Purposes: comms

External: N2YO · Heavens-Above · Gunter

§ Orbital elements

Epoch: 2026-05-24T23:47:57.420384Z

Period
1,436.08 min
Inclination
0.0155°
Eccentricity
0.0001350
Mean motion
1.00272648 rev/d
Perigee alt
35,780.7 km
Apogee alt
35,792.0 km
Semi-major
42,164.5 km
B*
0.0000e+0
RAAN
23.3418°
Arg perigee
37.8908°
Mean anomaly
68.3464°
Rev number
76

§ Raw data

ECHOSTAR 251 68126U 26045A   26144.99163681 -.00000060  00000+0  00000+0 0  99952 68126   0.0155  23.3418 0001350  37.8908  68.3464  1.00272648   765

JSON: /api/v1/satellites/68126 · /tle

For live sub-satellite position, see the globe view (requires WebGL).

§ Visibility from observer

Set your observer location to see the next 7 days of passes ≥ 10°. The values pass through the URL so the page stays shareable.

No JS? Fill the form by hand. The geolocation button needs JavaScript.